Location: Bad Dürkheim
(49.4618°N, 8.1724°E)
Time: 05:25:59
(UTC+00:00)

Cosmos 1703 - Pass Details

Date: 14 June 2025
Orbit: 442 x 453 km, 82.5° (Epoch: 12 July)

Event Time Altitude Azimuth Distance (km) Brightness Sun altitude
Exits shadow 22:34:47 30° 209° (SSW) 840 3.8 -16.3°
Maximum altitude 22:36:19 65° 281° (WNW) 510 3.2 -16.3°
Drops below altitude 10° 22:39:48 10° 4° (N) 1,612 6.9 -16.4°
Sets 22:41:55 0° 8° (N) 2,490 8.1 -16.5°
